RCH3312 ENOL-ETAR

Flight info

Callsign RCH3312
Flight time 1h 59m
Altitude 28000
Route UVEPI DCT OSVIG M604 SVA M609 RASVI DCT TUSKA DCT MALYK DCT ASBON
Aircraft C17/H-SDE1E2FGHIJ5RTUWXY/LB1D1

Departure

Time 2026-04-18 05:36
Airport Ørland Airport (ENOL)

Arrival

Time 2026-04-18 07:36
Airport Ramstein Air Base (ETAR)
Time Latitude Longitude Altitude Speed Heading
2026-04-18 05:26 63.70188 9.61153 36 ft 0 kts 157°
2026-04-18 05:30 63.70165 9.61178 35 ft 6 kts 155°
2026-04-18 05:30 63.70148 9.61179 36 ft 1 kts 204°
2026-04-18 05:31 63.70144 9.61169 36 ft 1 kts 231°
2026-04-18 05:31 63.70142 9.61160 36 ft 1 kts 255°
2026-04-18 05:31 63.70142 9.61149 34 ft 1 kts 277°
2026-04-18 05:31 63.70148 9.61101 36 ft 7 kts 284°
2026-04-18 05:32 63.70170 9.60955 36 ft 13 kts 290°
2026-04-18 05:32 63.70195 9.60817 35 ft 7 kts 304°
2026-04-18 05:32 63.70251 9.60757 34 ft 9 kts 347°
2026-04-18 05:32 63.70275 9.60720 34 ft 3 kts 301°
2026-04-18 05:33 63.70295 9.60624 35 ft 10 kts 288°
2026-04-18 05:33 63.70327 9.60434 35 ft 14 kts 305°
2026-04-18 05:33 63.70402 9.60333 35 ft 15 kts 335°
2026-04-18 05:33 63.70518 9.60208 34 ft 22 kts 333°
2026-04-18 05:34 63.70648 9.60061 34 ft 23 kts 333°
2026-04-18 05:34 63.70807 9.59883 33 ft 27 kts 332°
2026-04-18 05:34 63.70961 9.59719 32 ft 24 kts 332°
2026-04-18 05:34 63.71051 9.59494 32 ft 14 kts 298°
2026-04-18 05:35 63.71054 9.59390 32 ft 3 kts 238°
2026-04-18 05:35 63.71040 9.59363 31 ft 5 kts 219°
2026-04-18 05:35 63.70995 9.59289 33 ft 10 kts 212°
2026-04-18 05:35 63.70853 9.59347 35 ft 57 kts 153°
2026-04-18 05:36 63.70218 9.60047 87 ft 138 kts 153°
2026-04-18 05:36 63.69345 9.61019 1183 ft 130 kts 151°
2026-04-18 05:36 63.68586 9.62038 2383 ft 130 kts 148°
2026-04-18 05:36 63.67798 9.63157 3290 ft 140 kts 148°
2026-04-18 05:37 63.66703 9.64153 3494 ft 204 kts 170°
2026-04-18 05:37 63.65284 9.63356 4334 ft 228 kts 216°
2026-04-18 05:37 63.64335 9.60350 5277 ft 246 kts 245°
2026-04-18 05:37 63.63373 9.57160 6171 ft 250 kts 226°
2026-04-18 05:38 63.62122 9.54380 7053 ft 254 kts 222°
2026-04-18 05:38 63.60784 9.51703 7726 ft 262 kts 220°
2026-04-18 05:38 63.59378 9.49125 8236 ft 258 kts 215°
2026-04-18 05:38 63.57890 9.46869 8754 ft 258 kts 212°
2026-04-18 05:39 63.56874 9.45393 9101 ft 259 kts 212°
2026-04-18 05:39 63.55362 9.43181 9645 ft 260 kts 213°
2026-04-18 05:39 63.53863 9.40922 10161 ft 260 kts 213°
2026-04-18 05:39 63.52358 9.38641 10654 ft 262 kts 213°
2026-04-18 05:40 63.50339 9.35607 11323 ft 266 kts 213°
2026-04-18 05:40 63.49296 9.34047 11683 ft 267 kts 213°
2026-04-18 05:40 63.47760 9.31763 12193 ft 269 kts 212°
2026-04-18 05:40 63.46201 9.29438 12715 ft 271 kts 212°
2026-04-18 05:41 63.45139 9.27853 13075 ft 272 kts 212°
2026-04-18 05:41 63.43036 9.24735 13757 ft 275 kts 210°
2026-04-18 05:41 63.41265 9.23218 14254 ft 274 kts 193°
2026-04-18 05:41 63.39382 9.22411 14750 ft 277 kts 188°
2026-04-18 05:42 63.37459 9.21949 15237 ft 279 kts 185°
2026-04-18 05:42 63.35489 9.21649 15759 ft 281 kts 184°
2026-04-18 05:42 63.33534 9.21422 16267 ft 283 kts 183°
2026-04-18 05:42 63.31528 9.21439 16792 ft 303 kts 178°
2026-04-18 05:43 63.29352 9.21696 17324 ft 324 kts 177°
2026-04-18 05:43 63.27036 9.21949 17866 ft 342 kts 178°
2026-04-18 05:43 63.24598 9.22148 18415 ft 359 kts 179°
2026-04-18 05:43 63.22042 9.22357 18898 ft 375 kts 179°
2026-04-18 05:44 63.19388 9.22593 19390 ft 389 kts 179°
2026-04-18 05:44 63.16635 9.22837 19887 ft 403 kts 178°
2026-04-18 05:44 63.13792 9.23085 20387 ft 415 kts 178°
2026-04-18 05:44 63.10870 9.23339 20904 ft 426 kts 179°
2026-04-18 05:45 63.07873 9.23602 21423 ft 436 kts 178°
2026-04-18 05:45 63.04814 9.23866 21953 ft 444 kts 178°
2026-04-18 05:45 63.01692 9.24136 22484 ft 452 kts 178°
2026-04-18 05:45 62.98528 9.24410 23039 ft 459 kts 178°
2026-04-18 05:46 62.95312 9.24688 23580 ft 465 kts 178°
2026-04-18 05:46 62.92053 9.24967 24075 ft 471 kts 178°
2026-04-18 05:46 62.88770 9.25251 24558 ft 475 kts 178°
2026-04-18 05:46 62.85456 9.25534 25049 ft 479 kts 178°
2026-04-18 05:47 62.82111 9.25821 25541 ft 482 kts 178°
2026-04-18 05:47 62.78746 9.26106 26043 ft 485 kts 178°
2026-04-18 05:47 62.75367 9.26395 26564 ft 487 kts 178°
2026-04-18 05:47 62.71979 9.26682 27093 ft 488 kts 178°
2026-04-18 05:48 62.68578 9.26971 27620 ft 490 kts 178°
2026-04-18 05:48 62.65152 9.27257 27924 ft 496 kts 178°
2026-04-18 05:48 62.61676 9.27553 28039 ft 504 kts 178°
2026-04-18 05:48 62.58144 9.27849 28102 ft 512 kts 178°
2026-04-18 05:49 62.50985 9.28450 28130 ft 515 kts 178°
2026-04-18 05:49 62.43842 9.29046 28147 ft 513 kts 178°
2026-04-18 05:50 62.36751 9.29632 28153 ft 514 kts 178°
2026-04-18 05:50 62.29616 9.30221 28166 ft 513 kts 178°
2026-04-18 05:51 62.22483 9.30808 28171 ft 513 kts 178°
2026-04-18 05:51 62.15350 9.31392 28191 ft 514 kts 178°
2026-04-18 05:52 62.08214 9.31975 28178 ft 513 kts 178°
2026-04-18 05:52 62.01081 9.32551 28181 ft 513 kts 179°
2026-04-18 05:53 61.93941 9.33127 28201 ft 514 kts 179°
2026-04-18 05:53 61.86803 9.33701 28179 ft 513 kts 179°
2026-04-18 05:54 61.79661 9.34271 28197 ft 515 kts 179°
2026-04-18 05:54 61.72505 9.34841 28184 ft 514 kts 179°
2026-04-18 05:55 61.65363 9.35406 28200 ft 514 kts 179°
2026-04-18 05:55 61.58218 9.35972 28197 ft 516 kts 179°
2026-04-18 05:56 61.51009 9.36534 28210 ft 517 kts 179°
2026-04-18 05:56 61.43831 9.37095 28206 ft 516 kts 179°
2026-04-18 05:57 61.33052 9.37931 28212 ft 517 kts 179°
2026-04-18 05:58 61.25874 9.38486 28214 ft 516 kts 179°
2026-04-18 05:58 61.18700 9.39037 28211 ft 516 kts 180°
2026-04-18 05:59 61.11523 9.39584 28215 ft 515 kts 180°
2026-04-18 05:59 61.04431 9.38170 28212 ft 512 kts 192°
2026-04-18 06:00 60.97554 9.34513 28209 ft 510 kts 196°
2026-04-18 06:00 60.90693 9.30789 28201 ft 509 kts 196°
2026-04-18 06:01 60.83857 9.27098 28199 ft 508 kts 196°
2026-04-18 06:01 60.77014 9.23423 28202 ft 509 kts 196°
2026-04-18 06:02 60.70178 9.19765 28201 ft 507 kts 196°
2026-04-18 06:02 60.63354 9.16131 28200 ft 507 kts 196°
2026-04-18 06:03 60.56536 9.12516 28205 ft 507 kts 196°
2026-04-18 06:03 60.49701 9.08907 28193 ft 506 kts 196°
2026-04-18 06:04 60.42890 9.05327 28196 ft 505 kts 197°
2026-04-18 06:04 60.36079 9.01762 28203 ft 506 kts 197°
2026-04-18 06:05 60.29312 8.98237 28205 ft 505 kts 197°
2026-04-18 06:05 60.22515 8.94716 28179 ft 504 kts 197°
2026-04-18 06:06 60.15728 8.91204 28207 ft 505 kts 197°
2026-04-18 06:06 60.08922 8.87702 28211 ft 504 kts 197°
2026-04-18 06:07 60.02135 8.84223 28220 ft 503 kts 197°
2026-04-18 06:07 59.95349 8.80764 28208 ft 503 kts 197°
2026-04-18 06:08 59.88571 8.77321 28198 ft 503 kts 197°
2026-04-18 06:08 59.81796 8.73894 28216 ft 502 kts 197°
2026-04-18 06:09 59.75024 8.70482 28215 ft 502 kts 197°
2026-04-18 06:09 59.68268 8.67095 28212 ft 501 kts 197°
2026-04-18 06:10 59.61496 8.63712 28221 ft 501 kts 196°
2026-04-18 06:10 59.54743 8.60350 28220 ft 501 kts 196°
2026-04-18 06:11 59.47990 8.57006 28200 ft 501 kts 196°
2026-04-18 06:11 59.41232 8.53676 28192 ft 500 kts 196°
2026-04-18 06:12 59.34486 8.50355 28203 ft 500 kts 196°
2026-04-18 06:12 59.27729 8.47053 28209 ft 500 kts 196°
2026-04-18 06:13 59.20981 8.43765 28196 ft 499 kts 196°
2026-04-18 06:13 59.14242 8.40491 28195 ft 500 kts 196°
2026-04-18 06:14 59.07491 8.37229 28201 ft 499 kts 196°
2026-04-18 06:14 59.00750 8.33984 28211 ft 499 kts 196°
2026-04-18 06:15 58.94010 8.30751 28206 ft 499 kts 196°
2026-04-18 06:15 58.87273 8.27534 28212 ft 499 kts 196°
2026-04-18 06:16 58.80581 8.24353 28199 ft 498 kts 196°
2026-04-18 06:16 58.73799 8.21140 28200 ft 498 kts 196°
2026-04-18 06:17 58.67125 8.17991 28199 ft 498 kts 196°
2026-04-18 06:17 58.60378 8.14821 28183 ft 498 kts 196°
2026-04-18 06:18 58.53643 8.11668 28205 ft 498 kts 196°
2026-04-18 06:18 58.46866 8.08508 28200 ft 498 kts 196°
2026-04-18 06:19 58.40138 8.05384 28200 ft 497 kts 196°
2026-04-18 06:19 58.33453 8.02292 28204 ft 499 kts 196°
2026-04-18 06:20 58.26670 7.99165 28174 ft 497 kts 196°
2026-04-18 06:20 58.19993 7.96101 28176 ft 498 kts 196°
2026-04-18 06:21 58.13257 7.93022 28170 ft 497 kts 196°
2026-04-18 06:21 58.06355 7.91582 28188 ft 504 kts 185°
2026-04-18 06:22 57.99325 7.92494 28174 ft 507 kts 178°
2026-04-18 06:22 57.93481 7.93531 28166 ft 507 kts 178°
2026-04-18 06:23 57.85264 7.95011 28155 ft 508 kts 178°
2026-04-18 06:23 57.78239 7.96270 28148 ft 508 kts 178°
2026-04-18 06:24 57.72372 7.97315 28163 ft 508 kts 178°
2026-04-18 06:24 57.64146 7.98774 28158 ft 509 kts 178°
2026-04-18 06:25 57.58277 7.99814 28159 ft 509 kts 178°
2026-04-18 06:25 57.51227 8.01056 28161 ft 509 kts 178°
2026-04-18 06:26 57.44165 8.02294 28159 ft 510 kts 178°
2026-04-18 06:26 57.37104 8.03530 28160 ft 510 kts 178°
2026-04-18 06:27 57.30036 8.04656 28156 ft 509 kts 180°
2026-04-18 06:27 57.22996 8.04464 28160 ft 506 kts 186°
2026-04-18 06:28 57.15947 8.03912 28162 ft 507 kts 186°
2026-04-18 06:28 57.08908 8.03346 28159 ft 506 kts 186°
2026-04-18 06:29 57.01874 8.02786 28155 ft 507 kts 186°
2026-04-18 06:29 56.94825 8.02229 28158 ft 507 kts 186°
2026-04-18 06:30 56.87773 8.01674 28161 ft 507 kts 186°
2026-04-18 06:30 56.80716 8.01119 28166 ft 508 kts 186°
2026-04-18 06:31 56.73646 8.00567 28155 ft 509 kts 186°
2026-04-18 06:31 56.66577 8.00017 28148 ft 508 kts 186°
2026-04-18 06:32 56.59502 7.99466 28153 ft 510 kts 186°
2026-04-18 06:32 56.52421 7.98920 28160 ft 509 kts 186°
2026-04-18 06:33 56.45341 7.98375 28153 ft 509 kts 186°
2026-04-18 06:33 56.38262 7.97831 28152 ft 510 kts 186°
2026-04-18 06:34 56.31224 7.97294 28153 ft 509 kts 186°
2026-04-18 06:35 56.16574 7.96179 28151 ft 510 kts 186°
2026-04-18 06:35 56.09482 7.95644 28152 ft 510 kts 186°
2026-04-18 06:36 56.02387 7.95109 28150 ft 510 kts 186°
2026-04-18 06:36 55.95290 7.94576 28152 ft 511 kts 186°
2026-04-18 06:37 55.88189 7.94047 28151 ft 510 kts 186°
2026-04-18 06:37 55.81093 7.93517 28153 ft 511 kts 186°
2026-04-18 06:38 55.73993 7.92991 28153 ft 511 kts 186°
2026-04-18 06:38 55.66887 7.92465 28149 ft 511 kts 186°
2026-04-18 06:39 55.59781 7.91941 28151 ft 511 kts 186°
2026-04-18 06:39 55.52720 7.91424 28154 ft 511 kts 186°
2026-04-18 06:40 55.45611 7.90903 28163 ft 512 kts 186°
2026-04-18 06:40 55.38501 7.90385 28150 ft 511 kts 186°
2026-04-18 06:41 55.31397 7.89869 28147 ft 511 kts 186°
2026-04-18 06:41 55.24235 7.89350 28146 ft 512 kts 186°
2026-04-18 06:42 55.17168 7.88842 28146 ft 511 kts 186°
2026-04-18 06:42 55.10015 7.88327 28166 ft 512 kts 186°
2026-04-18 06:43 55.02946 7.87838 28144 ft 512 kts 186°
2026-04-18 06:43 54.95832 7.87275 28153 ft 511 kts 186°
2026-04-18 06:44 54.88728 7.86717 28148 ft 512 kts 186°
2026-04-18 06:44 54.81621 7.86152 28144 ft 512 kts 186°
2026-04-18 06:45 54.74500 7.85593 28146 ft 512 kts 186°
2026-04-18 06:45 54.67379 7.85031 28147 ft 512 kts 186°
2026-04-18 06:46 54.60261 7.84476 28151 ft 512 kts 186°
2026-04-18 06:46 54.53140 7.83920 28152 ft 513 kts 186°
2026-04-18 06:47 54.46006 7.83364 28153 ft 513 kts 186°
2026-04-18 06:47 54.38872 7.82813 28143 ft 513 kts 186°
2026-04-18 06:48 54.31740 7.82262 28147 ft 514 kts 186°
2026-04-18 06:48 54.24587 7.81711 28148 ft 514 kts 186°
2026-04-18 06:49 54.17438 7.81164 28149 ft 514 kts 186°
2026-04-18 06:49 54.10286 7.80617 28151 ft 515 kts 186°
2026-04-18 06:50 54.03119 7.80071 28150 ft 516 kts 186°
2026-04-18 06:50 53.95964 7.79529 28148 ft 515 kts 186°
2026-04-18 06:51 53.88782 7.78985 28154 ft 516 kts 186°
2026-04-18 06:51 53.82819 7.78536 28156 ft 516 kts 186°
2026-04-18 06:52 53.75678 7.78000 28155 ft 516 kts 186°
2026-04-18 06:52 53.68453 7.77459 28150 ft 517 kts 186°
2026-04-18 06:53 53.61259 7.76922 28157 ft 518 kts 186°
2026-04-18 06:53 53.54049 7.76386 28157 ft 518 kts 186°
2026-04-18 06:54 53.46839 7.75852 28158 ft 519 kts 186°
2026-04-18 06:54 53.39616 7.75317 28157 ft 520 kts 186°
2026-04-18 06:55 53.32427 7.74788 28163 ft 520 kts 186°
2026-04-18 06:55 53.25191 7.74258 28164 ft 520 kts 186°
2026-04-18 06:56 53.17959 7.73730 28166 ft 521 kts 186°
2026-04-18 06:56 53.10715 7.73201 28166 ft 521 kts 186°
2026-04-18 06:57 53.03456 7.72673 28170 ft 522 kts 186°
2026-04-18 06:57 52.92559 7.71839 28176 ft 523 kts 186°
2026-04-18 06:58 52.85290 7.71267 28177 ft 523 kts 186°
2026-04-18 06:58 52.78011 7.70693 28177 ft 524 kts 186°
2026-04-18 06:59 52.70733 7.70120 28188 ft 524 kts 186°
2026-04-18 06:59 52.63447 7.69550 28182 ft 524 kts 186°
2026-04-18 07:00 52.56157 7.68981 28179 ft 525 kts 186°
2026-04-18 07:00 52.48914 7.68416 28183 ft 525 kts 186°
2026-04-18 07:01 52.41610 7.67850 28188 ft 526 kts 186°
2026-04-18 07:01 52.34298 7.67283 28180 ft 526 kts 186°
2026-04-18 07:02 52.26978 7.66720 28185 ft 526 kts 186°
2026-04-18 07:02 52.19656 7.66157 28186 ft 527 kts 186°
2026-04-18 07:03 52.12328 7.65597 28182 ft 527 kts 186°
2026-04-18 07:03 52.04999 7.65038 28184 ft 527 kts 186°
2026-04-18 07:04 51.97650 7.64478 28182 ft 529 kts 186°
2026-04-18 07:04 51.90303 7.63921 28180 ft 529 kts 186°
2026-04-18 07:05 51.82951 7.63365 28184 ft 529 kts 186°
2026-04-18 07:05 51.75577 7.62810 28183 ft 531 kts 185°
2026-04-18 07:06 51.68199 7.62257 28185 ft 531 kts 185°
2026-04-18 07:06 51.60825 7.61705 28188 ft 531 kts 186°
2026-04-18 07:07 51.53432 7.61152 28186 ft 532 kts 185°
2026-04-18 07:07 51.46041 7.60604 28185 ft 532 kts 185°
2026-04-18 07:08 51.38652 7.60057 28185 ft 532 kts 185°
2026-04-18 07:08 51.31243 7.59510 28102 ft 534 kts 185°
2026-04-18 07:09 51.27521 7.59233 27692 ft 536 kts 185°
2026-04-18 07:09 51.23833 7.58965 27172 ft 530 kts 185°
2026-04-18 07:09 51.20162 7.58696 26657 ft 523 kts 185°
2026-04-18 07:09 51.16543 7.58428 26164 ft 519 kts 185°
2026-04-18 07:10 51.12957 7.58166 25672 ft 517 kts 185°
2026-04-18 07:10 51.09368 7.57904 25188 ft 515 kts 185°
2026-04-18 07:10 51.05792 7.57643 24708 ft 511 kts 185°
2026-04-18 07:10 51.02281 7.57390 24240 ft 489 kts 185°
2026-04-18 07:11 50.98972 7.57149 23846 ft 468 kts 186°
2026-04-18 07:11 50.95777 7.56913 23428 ft 448 kts 185°
2026-04-18 07:11 50.92775 7.56699 23018 ft 417 kts 186°
2026-04-18 07:11 50.89968 7.56495 22610 ft 390 kts 186°
2026-04-18 07:12 50.87338 7.56302 22210 ft 368 kts 186°
2026-04-18 07:12 50.84819 7.56118 21820 ft 356 kts 186°
2026-04-18 07:12 50.82373 7.55941 21477 ft 348 kts 186°
2026-04-18 07:12 50.79966 7.55767 21191 ft 346 kts 186°
2026-04-18 07:13 50.77555 7.55595 20916 ft 347 kts 186°
2026-04-18 07:13 50.75134 7.55560 20646 ft 351 kts 175°
2026-04-18 07:13 50.72748 7.56463 20373 ft 353 kts 167°
2026-04-18 07:13 50.70401 7.57577 20109 ft 352 kts 166°
2026-04-18 07:14 50.68068 7.58748 19840 ft 351 kts 166°
2026-04-18 07:14 50.65728 7.59759 19576 ft 348 kts 170°
2026-04-18 07:14 50.63399 7.60566 19324 ft 347 kts 171°
2026-04-18 07:14 50.61013 7.61407 19069 ft 346 kts 170°
2026-04-18 07:15 50.58686 7.62263 18814 ft 345 kts 170°
2026-04-18 07:15 50.56338 7.63126 18531 ft 344 kts 170°
2026-04-18 07:15 50.54002 7.63975 18206 ft 343 kts 170°
2026-04-18 07:15 50.51692 7.64812 17867 ft 341 kts 170°
2026-04-18 07:16 50.49382 7.65651 17548 ft 339 kts 170°
2026-04-18 07:16 50.47096 7.66481 17249 ft 337 kts 170°
2026-04-18 07:16 50.44821 7.67308 16963 ft 335 kts 170°
2026-04-18 07:16 50.42548 7.68132 16689 ft 335 kts 170°
2026-04-18 07:17 50.40282 7.68951 16411 ft 334 kts 170°
2026-04-18 07:17 50.38018 7.69771 16127 ft 332 kts 170°
2026-04-18 07:17 50.35776 7.70581 15850 ft 330 kts 170°
2026-04-18 07:17 50.33539 7.71388 15566 ft 329 kts 170°
2026-04-18 07:18 50.31312 7.72191 15278 ft 328 kts 170°
2026-04-18 07:18 50.29090 7.72991 15000 ft 327 kts 170°
2026-04-18 07:18 50.26879 7.73788 14744 ft 326 kts 170°
2026-04-18 07:18 50.24672 7.74582 14468 ft 324 kts 170°
2026-04-18 07:19 50.22483 7.75370 14208 ft 323 kts 170°
2026-04-18 07:19 50.20327 7.76141 13947 ft 322 kts 170°
2026-04-18 07:19 50.18118 7.76932 13650 ft 321 kts 170°
2026-04-18 07:19 50.15975 7.77701 13367 ft 319 kts 169°
2026-04-18 07:20 50.13793 7.78483 13070 ft 317 kts 169°
2026-04-18 07:20 50.11678 7.79239 12789 ft 315 kts 169°
2026-04-18 07:20 50.09543 7.80002 12506 ft 314 kts 169°
2026-04-18 07:20 50.07421 7.80758 12234 ft 312 kts 169°
2026-04-18 07:21 50.05312 7.81511 11972 ft 310 kts 169°
2026-04-18 07:21 50.03209 7.82260 11697 ft 309 kts 169°
2026-04-18 07:21 50.01122 7.83005 11420 ft 307 kts 169°
2026-04-18 07:21 49.99048 7.83740 11136 ft 305 kts 169°
2026-04-18 07:22 49.96983 7.84475 10858 ft 303 kts 169°
2026-04-18 07:22 49.94930 7.85203 10594 ft 302 kts 169°
2026-04-18 07:22 49.92888 7.85928 10337 ft 301 kts 168°
2026-04-18 07:22 49.90860 7.86648 10087 ft 299 kts 168°
2026-04-18 07:23 49.88834 7.87365 9797 ft 297 kts 169°
2026-04-18 07:23 49.86822 7.88076 9503 ft 295 kts 169°
2026-04-18 07:23 49.84884 7.88758 9253 ft 277 kts 168°
2026-04-18 07:23 49.83051 7.89409 9012 ft 266 kts 168°
2026-04-18 07:24 49.81273 7.90037 8774 ft 259 kts 168°
2026-04-18 07:24 49.79526 7.90655 8535 ft 256 kts 169°
2026-04-18 07:24 49.77795 7.91263 8325 ft 255 kts 168°
2026-04-18 07:24 49.76065 7.91872 8090 ft 254 kts 168°
2026-04-18 07:25 49.74346 7.92477 7852 ft 253 kts 168°
2026-04-18 07:25 49.72643 7.93080 7624 ft 251 kts 168°
2026-04-18 07:25 49.70937 7.93675 7400 ft 250 kts 168°
2026-04-18 07:25 49.69244 7.94266 7164 ft 249 kts 168°
2026-04-18 07:26 49.67559 7.94863 6941 ft 248 kts 168°
2026-04-18 07:26 49.65904 7.95441 6748 ft 238 kts 168°
2026-04-18 07:26 49.64316 7.96002 6536 ft 230 kts 168°
2026-04-18 07:26 49.62774 7.96541 6346 ft 225 kts 168°
2026-04-18 07:27 49.61274 7.97069 6147 ft 224 kts 168°
2026-04-18 07:27 49.59753 7.97597 5985 ft 223 kts 168°
2026-04-18 07:27 49.58239 7.98116 5850 ft 223 kts 168°
2026-04-18 07:27 49.56722 7.98649 5689 ft 224 kts 168°
2026-04-18 07:28 49.55209 7.99186 5529 ft 223 kts 168°
2026-04-18 07:28 49.53700 7.99714 5378 ft 222 kts 169°
2026-04-18 07:28 49.52184 8.00237 5174 ft 225 kts 168°
2026-04-18 07:28 49.50652 8.00771 4866 ft 224 kts 168°
2026-04-18 07:29 49.49144 8.01295 4554 ft 221 kts 168°
2026-04-18 07:29 49.47641 8.01735 4258 ft 219 kts 180°
2026-04-18 07:29 49.46272 8.00906 3948 ft 216 kts 225°
2026-04-18 07:29 49.45552 7.98918 3751 ft 214 kts 250°
2026-04-18 07:30 49.45178 7.96780 3572 ft 200 kts 261°
2026-04-18 07:30 49.45062 7.94705 3376 ft 191 kts 267°
2026-04-18 07:30 49.44971 7.92718 3233 ft 184 kts 265°
2026-04-18 07:30 49.44914 7.90767 3172 ft 182 kts 268°
2026-04-18 07:31 49.44866 7.88821 3125 ft 182 kts 267°
2026-04-18 07:31 49.44848 7.88165 3085 ft 182 kts 268°
2026-04-18 07:31 49.44717 7.85118 2900 ft 158 kts 265°
2026-04-18 07:31 49.44639 7.83478 2856 ft 152 kts 266°
2026-04-18 07:32 49.44581 7.81876 2838 ft 147 kts 267°
2026-04-18 07:32 49.44528 7.80294 2804 ft 149 kts 267°
2026-04-18 07:32 49.44473 7.78707 2783 ft 148 kts 267°
2026-04-18 07:32 49.44414 7.77130 2783 ft 149 kts 267°
2026-04-18 07:33 49.44348 7.75550 2581 ft 140 kts 267°
2026-04-18 07:33 49.44281 7.74071 2381 ft 138 kts 267°
2026-04-18 07:33 49.44235 7.73093 2274 ft 139 kts 267°
2026-04-18 07:33 49.44149 7.71126 2052 ft 131 kts 268°
2026-04-18 07:34 49.44093 7.69778 1868 ft 127 kts 268°
2026-04-18 07:34 49.44040 7.68421 1677 ft 127 kts 268°
2026-04-18 07:34 49.43992 7.67072 1464 ft 126 kts 267°
2026-04-18 07:34 49.43929 7.65763 1322 ft 117 kts 266°
2026-04-18 07:35 49.43868 7.64558 1153 ft 114 kts 267°
2026-04-18 07:35 49.43822 7.63376 1022 ft 106 kts 265°
2026-04-18 07:35 49.43784 7.62287 880 ft 99 kts 266°
2026-04-18 07:35 49.43734 7.61294 790 ft 84 kts 266°
2026-04-18 07:36 49.43719 7.60687 788 ft 35 kts 263°
2026-04-18 07:36 49.43705 7.60305 786 ft 37 kts 269°
2026-04-18 07:36 49.43694 7.59963 784 ft 21 kts 277°
2026-04-18 07:36 49.43763 7.59841 783 ft 13 kts 332°
2026-04-18 07:37 49.43852 7.59754 783 ft 18 kts 326°
2026-04-18 07:37 49.43954 7.59657 782 ft 14 kts 332°
2026-04-18 07:37 49.44038 7.59608 782 ft 12 kts 335°
2026-04-18 07:37 49.44064 7.59560 782 ft 3 kts 280°
2026-04-18 07:38 49.44067 7.59523 781 ft 0 kts 271°